TimeAKST,TemperatureF,Dew PointF,Humidity,Sea Level PressureIn,VisibilityMPH,Wind Direction,Wind SpeedMPH,Gust SpeedMPH,PrecipitationIn,Events,Conditions,WindDirDegrees,DateUTC
12:53 AM,-38.0,-9999,N/A,29.94,10.0,Calm,Calm,-,N/A,,Clear,0,2012-12-04 09:53:00
1:53 AM,-38.0,-9999,N/A,29.93,10.0,Calm,Calm,-,N/A,,Overcast,0,2012-12-04 10:53:00
3:53 AM,-34.1,-9999,N/A,29.91,10.0,Calm,Calm,-,N/A,,Mostly Cloudy,0,2012-12-04 12:53:00
4:53 AM,-36.0,-9999,N/A,29.91,10.0,WNW,3.5,-,N/A,,Clear,300,2012-12-04 13:53:00
5:53 AM,-38.9,-9999,N/A,29.91,10.0,Calm,Calm,-,N/A,,Clear,0,2012-12-04 14:53:00
5:59 AM,-38.2,-9999,N/A,29.59,10.0,Calm,Calm,-,N/A,,Clear,0,2012-12-04 14:59:00
6:53 AM,-38.9,-9999,N/A,29.91,10.0,Calm,Calm,-,N/A,,Clear,0,2012-12-04 15:53:00
7:53 AM,-38.9,-9999,N/A,29.90,10.0,Calm,Calm,-,N/A,,Partly Cloudy,0,2012-12-04 16:53:00
8:53 AM,-40.0,-9999,N/A,29.90,10.0,Calm,Calm,-,N/A,Fog,Shallow Fog,0,2012-12-04 17:53:00
9:53 AM,-41.1,-9999,N/A,29.91,10.0,NW,5.8,-,N/A,Fog,Shallow Fog,310,2012-12-04 18:53:00
10:53 AM,-36.9,-9999,N/A,29.89,10.0,Calm,Calm,-,N/A,Fog,Shallow Fog,0,2012-12-04 19:53:00
11:53 AM,-32.1,-9999,N/A,29.87,10.0,Calm,Calm,-,N/A,,Partly Cloudy,0,2012-12-04 20:53:00
12:53 PM,-26.0,-33.0,69,29.86,10.0,Calm,Calm,-,N/A,,Scattered Clouds,0,2012-12-04 21:53:00
1:53 PM,-24.0,-29.9,74,29.85,10.0,Calm,Calm,-,N/A,,Clear,0,2012-12-04 22:53:00
2:53 PM,-27.9,-34.1,73,29.87,10.0,Calm,Calm,-,N/A,,Clear,0,2012-12-04 23:53:00
3:53 PM,-31.0,-9999,N/A,29.87,10.0,Calm,Calm,-,N/A,,Clear,0,2012-12-05 00:53:00
4:53 PM,-36.0,-9999,N/A,29.88,10.0,Calm,Calm,-,N/A,,Clear,0,2012-12-05 01:53:00
5:53 PM,-38.0,-9999,N/A,29.90,8.0,NNE,3.5,-,N/A,,Clear,20,2012-12-05 02:53:00
6:53 PM,-40.0,-9999,N/A,29.90,10.0,Calm,Calm,-,N/A,,Clear,0,2012-12-05 03:53:00
7:53 PM,-41.1,-9999,N/A,29.91,10.0,North,3.5,-,N/A,,Clear,10,2012-12-05 04:53:00
8:53 PM,-41.1,-9999,N/A,29.91,10.0,North,4.6,-,N/A,,Clear,360,2012-12-05 05:53:00
9:26 PM,-41.8,-9999,N/A,29.58,10.0,Calm,Calm,-,N/A,,Clear,0,2012-12-05 06:26:00
9:53 PM,-41.1,-9999,N/A,29.93,9.0,Calm,Calm,-,N/A,,Clear,0,2012-12-05 06:53:00
10:53 PM,-41.1,-9999,N/A,29.92,10.0,Calm,Calm,-,N/A,,Clear,0,2012-12-05 07:53:00
11:53 PM,-41.1,-9999,N/A,29.93,10.0,NW,3.5,-,N/A,,Clear,320,2012-12-05 08:53:00